Home Rules Search Enroll Grooms Brides Divorcee Response Magazine Photo Edit
 
Grooms
 
If you want contact details of matching profiles, please submit these registration numbers through RESPONSE option along with your registration number and registered email address.
 
Reg.No Reg-Dt Height Birth-Dt Education Residence Occupation
             
 
MB33789 03/12/13 5.06 19/05/85 BE(COMP), MS(COMP.ENGG) SWEEDAN/ FINLAND AND NORVE, PHD(GERMANY) LATUR RESEARCHER AND PROFESSOR/--
MB33788 03/12/13 5.05 01/01/86 BDS NANDED DENTIST/6 LAC PA
MB33787 03/12/13 5.08 26/03/83 BE A.NAGAR SAP CONSULTANT PUNE/10 LAC PA
MB33786 03/12/13 5.04 05/02/83 BE(ELECTRICAL) PUNE SR.S/W ENGINEER/7 LAC PA
MB33785 03/12/13 5.09 22/08/86 BE(ELECTRONICS) SATARA EXECUTIVE IN MNC PUNE/5.25 LAC PA
MB33783 03/12/13 5.10 21/06/83 BHMS PUNE OWN HOSPITAL IN PUNE/--
MB33782 03/12/13 5.08 17/12/87 BCOM, COMP.DIP. PUNE MOBILE SHOPPE PUNE/50000/-PM
MB33781 03/12/13 5.10 12/03/85 BE(E&TC) BHILAI NAGAR SR.ASSOCIATE PUNE/8.5 LAC PA
MB33780 03/12/13 6.00 28/03/86 ME(PROD.DESIGN & ENGG) KOLHAPUR SERVICE/4 LAC PA
MB33779 03/12/13 5.09 27/10/84 BE, MBA(OPER) SOLAPUR EXECUTIVE AT AUTOMOTIVE MNC PUNE/--
MB33778 03/12/13 5.07 21/12/84 BE(MECH) PUNE S/W ENGINEER IN MNC PUNE/9 LAC PA
MB33777 03/12/13 5.05 31/12/82 BCOM, CA(FINAL)PASSED II GROUP PUNE SERVICE+PRACTICE/25000/-+PM
MB33776 02/12/13 5.09 06/03/86 M.TECH(MECH) IIT MUMBAI PUNE ASSIST. MANAGER PUNE/6 LAC PA
MB33774 02/12/13 5.06 30/05/86 BE(E&TC) SANGLI SERVICE/5.2 LAC PA
MB33773 02/12/13 5.10 05/04/85 MASTERS IN STRUCT. ENGG(USA) KOLHAPUR STRUCTURAL ENGINEER MUMBAI/--
MB33772 02/12/13 5.08 16/06/87 BE(E&TC) MUMBAI NETWORK SPECIALIST/ SYNTEL/40000/-PM
MB33771 01/12/13 5.09 17/05/83 DME, PGDBM PUNE BUSINESS- EXECUTIVE DIRECTOR,S/W CO.PUNE & HAVELLS DISTRIBUTORSHIP IN SATARA/12 LAC+ PA
MB33770 01/12/13 5.11 31/07/86 MBBS, MD(MEDICINE)APPEAR SATARA DOING MD(MEDICINE)/--
MB33769 01/12/13 5.11 08/11/83 BSC(PHY), PGDFOMT KARAD CONSTRUCTION BUSINESS/18 LAC PA
MB33768 01/12/13 5.06 29/08/87 BE(E&TC) PUNE SERVICE PUNE/30000/-PM
MB33767 01/12/13 5.08 04/01/87 M.PHARM PUNE SERVICE IN PUNE/20000/-PM
MB33766 01/12/13 5.06 27/07/86 BCOM, MBA SATARA --/--
MB33765 01/12/13 5.07 22/10/85 BE(MECH), MBA KARAD SERVICE PUNE/55000/-PM
MB33763 01/12/13 5.04 08/04/85 FY BSC SATARA TRANSPORT BUSINESS+PETROL PUMP SATARA/2 LAC PM
MB33762 01/12/13 5.10 06/03/83 MBBS, DNB(OBSTETRICS & GYNAC), DIP.IN LAPROSCOPY PUNE JR. CONSULTANT IN BIRLA HOSPITAL PUNE/1.2 LAC PM
MB33761 01/12/13 5.06 24/05/87 BSC(BIOTECH), MBA(HR), DLL, LW PUNE HR OFFICER+LIC CONSULTANT PUNE/33000/-PM
MB33760 01/12/13 5.08 04/02/81 MCM PUNE S/W ENGINEER PUNE/40000/-PM
MB33758 01/12/13 6.00 28/12/80 DIP.IN COMP(II) PUNE EVENT MGMT PUNE/20000/-PM
MB33757 01/12/13 5.07 24/06/88 M.TECH(ELECTRICAL POWER SYSTEM) SATARA ASST.PROFESSOR BARAMATI/--
MB33756 01/12/13 5.06 13/04/86 MCA SATARA S/W ENGINEER PUNE/55000/-PM
MB33755 01/12/13 5.10 06/07/87 12TH COMMERCE (ENGLISH MEDIUM) THANE BUSINESS TOURS & TRAVELS, ELECTRIC CONTRACTOR/70000/-PM
MB33754 01/12/13 6.03 11/12/84 BE, MS(USA) MUMBAI SERVICE USA/$1.10 LAC PA
MB33753 01/12/13 5.04 25/11/83 MBBS, DCH KOLHAPUR DOING DCH/--
MB33752 30/11/13 5.08 04/12/82 BE, MBA(IT) SINGAPORE MUMBAI IT MANAGER IN SAUDI ARABIA/22.50 LAC PA
MB33751 30/11/13 5.09 13/11/84 MSC PUNE SR.S/W ENGINEER/8.25 LAC PA
MB33750 30/11/13 5.09 30/05/85 MBA(HR), DIPLOMA IN TRAINING & DEVELOPMENT A.NAGAR ASST.MANAGER PUNE/35000/-PM
MB33749 30/11/13 5.10 30/11/84 BE(MECH) PUNE ENGINEER PUNE/4.5 LAC PA
MB33748 30/11/13 5.09 11/09/84 MCA KOLHAPUR S/W ENGINEER PUNE/3.5 LAC PA
MB33747 30/11/13 5.10 08/07/86 BE(COMP.ENGG) BULDANA SERVICE IN TCS PUNE (NOW IN USA)/9 LAC PA
MB33746 30/11/13 5.04 28/10/85 MBBS, MS(II)APPEAR SINDHUDURG DOING MS(II)YEAR/--
MB33745 30/11/13 5.06 25/05/86 MCA PUNE S/W ENGINEER PUNE/5 LAC PA
MB33744 30/11/13 5.07 26/03/84 BE(MECH) PUNE ASST.MANAGER PUNE/60000/-PM
MB33742 30/11/13 5.07 04/03/84 BE(COMP) JALNA SAP LEAD CONSULTANT IN MNC PUNE (Travelled to Johannesburge for 5 months)/9.07 LAC PA
MB33741 30/11/13 5.07 22/10/85 BCOM, MCM PUNE SERVICE S/W ENGINEER MNC PUNE/
MB33740 30/11/13 5.09 06/02/80 BE(AUTO) PUNE SERVICE/65000/-PM
MB33739 30/11/13 5.08 20/07/80 BE(ELECTRONICS), C-DAC SANGLI S/W ENGINEER/70000/-PM
MB33738 30/11/13 5.05 12/07/83 MBBS, DAFE, CHA. SANGLI MEDICAL OFFICER IN CEN.GOVT./55000/-PM
MB33737 30/11/13 5.11 16/12/84 BE(E&TC) KOLHAPUR BUSINESS/11 LAC PA
MB33736 30/11/13 5.10 28/04/85 PHD(USA)ENGG THANE PROJECT ENGINEER/1 LAC PM
MB33735 29/11/13 5.07 13/12/82 CA(FINAL 2ND GROUP YET TO CLEAR), CS(INTER), BCOM, D.ED PUNE Service at Pune and Finance consultancy to one of the corporate group at chennai/7.5 LAC PA
MB33734 29/11/13 5.10 11/07/82 BA(POLITICES),MBA(MKTG) PUNE SERVICE/25000/-PM
MB33733 29/11/13 5.06 19/03/84 MBBS, DMRD SOLAPUR MEDICAL OFFICER (PG BONDED SERVICE)/55000/-PM
MB33732 29/11/13 5.08 15/09/87 MBBS, MD(MEDICINE)II YEAR AURANGABAD DOING MD(MEDICINE)II-ND YEAR/--
MB33730 29/11/13 5.06 10/10/83 BCOM, COMP.DIP., LLB APPEAR PUNE FLAT ON RENT, CYBER CAFE PUNE/1.5 LAC PM
MB33729 29/11/13 5.06 20/01/84 BE(E&TC) PUNE TEAM LEAD PUNE/8.5 LAC PA
MB33728 29/11/13 5.04 29/11/85 M.PHARM GOA SERVICE AS A QA OFFICER GOA/2.85 LAC PA
MB33727 29/11/13 5.05 20/09/76 GD ARTS IN SCULEPTURE (JJ SCHOOL OF ART MUMBAI) SOLAPUR FINE ARTIST AS A SCULPTOR/--
MB33726 29/11/13 6.00 25/08/87 BBA, MBA, LLB A.NAGAR ASST.BRANCH MANAGER IN BANK A.NAGAR/10 LAC PA
MB33725 29/11/13 5.11 25/11/77 BE(MECH) PUNE SELF EMPLOYED PUNE/30000/-PM
MB33724 29/11/13 6.00 26/04/84 MBBS, DNB(MEDICIN) A.NAGAR DOING SUPER SPECIALIASATION IN GASTROENTEROLOGY AT KOCHI-KERALA/--
MB33723 28/11/13 5.09 07/10/85 MBBS PUNE OWN HOSPITAL PUNE/--
MB33722 28/11/13 5.06 25/11/82 BHMS, PGDEMS, PGNHI SATARA OWN CLINIC SATARA/55000/+PM
MB33721 28/11/13 5.07 02/11/85 MSC(COMP), PGDIT A.NAGAR SR.S/W ENGINEER/40000/-PM
MB33720 28/11/13 5.10 16/02/84 BDS, MDS(MAXILO FACIAL ORAL SURG) BIDAR DENTIST IN PARBHANI/6 LAC PA
MB33718 28/11/13 5.11 27/02/83 BE(COMP) LATUR S/W ENGINEER PUNE/35000/-PM
MB33717 28/11/13 5.06 23/05/84 BE(COMP), MS(USA)S/W ENGINEER IN USA PUNE S/W ENGINEER USA/--
MB33716 28/11/13 5.06 27/09/87 B.TECH(MARINE) MUMBAI MARINE ENGINEER/2 LAC PM
MB33715 28/11/13 5.04 29/04/86 M.TECH, AGRI ENGG. PUNE SERVICE HYDERABAD/45000/-PM
MB33714 28/11/13 5.09 23/04/83 BE(MECH) VIT PUNE - DISTINCTION DHULE ASST VICE PRESIDENT IN SINGAPORE/50 LAC PA
MB33711 27/11/13 5.06 25/05/84 MA, D.ED LATUR GOVT.TEACHER ZP NASHIK/33000/-PM
MB33710 27/11/13 5.08 25/11/85 BE(E&TC) PUNE SR.SYSTEM ENGINEER/6.24 LAC PA
MB33709 27/11/13 5.08 28/04/84 MS(BIOTECH)UK A.NAGAR SERVICE PUNE/15000/-PM
MB33708 27/11/13 5.06 30/07/82 BAMS, MD(MED), DEMS, ACLS SANGLI CONSULTANT PUNE/1.15 LAC PM
MB33707 27/11/13 5.08 24/04/85 BE(MECH) PUNE AUTOMATION BUSINESS/--
MB33706 27/11/13 5.10 12/11/82 12TH SCI. PUNE SERVICE PUNE/27000/-PM
MB33703 27/11/13 5.07 30/04/83 BBA, PURSUING CFP NAVI MUMBAI SERVICE/3.7 LAC PA
MB33702 27/11/13 5.08 11/08/80 CHARTERETED ACCOUNTANT THANE ASST.AUDIT MANAGER/8 LAC PA
MB33701 27/11/13 5.10 12/09/83 BE(INDUS.ENGG) PUNE SERVICE IN MNC PUNE/--
MB33600 26/11/13 5.08 01/11/80 MCA GOA SR.MANAGER UK/5 LAC PM
MB33599 26/11/13 5.07 18/01/81 MCA BULDANA S/W ENGINEER IN NEW MUMBAI/10 LAC PA
MB33598 26/11/13 5.09 08/10/84 MBBS LATUR SELECTED AS DY.C.E.O ZP CLASS-I/--
MB33597 26/11/13 5.04 13/05/84 B.TECH(CIVIL), MS(CIVIL)USA PUNE DESIGN ENGINEER USA/--
MB33594 26/11/13 5.11 26/09/85 ENGINEER UK THANE MERCHANT NAVY/25 LAC PA
MB33593 26/11/13 5.11 22/10/86 BDS, MDS(ORTHO)FINAL BULDANA DOCTOR/--
MB33592 26/11/13 5.09 08/06/87 S.Y.BCOM, PROCESS DESIGNER IN OIL & GAS FIELD SERVICE/5.25 LAC PA
MB33591 26/11/13 5.06 04/07/86 BE(MECH), ME(DESIGN) KOLHAPUR ENGINEER PUNE/7 LAC PA
MB33590 26/11/13 6.00 22/11/82 BE(MECH), C-DAC PUNE S/W ENGINEER/6 LAC PA
MB33588 26/11/13 5.11 28/03/83 BE(MECH) FIRST CLASS WITH DISTINCTION, MS(USA), MBA(CHICAGO UNIVERSITY) PUNE DELOIT &TOUCHER MANAGER INDIA PREVIOUSLY Scientist at ISRO (Indian Space Research Organization)/24 LAC PA
MB33586 25/11/13 5.09 03/11/83 BE(COMP) PUNE SERVICE PUNE/1 LAC PM
MB33585 25/11/13 5.08 24/03/84 12TH PUNE SERVICE IN PUNE/14000/-
MB33584 24/11/13 5.04 11/11/86 DME PUNE SR.ENGINEER/34000/-PM
MB33583 24/11/13 5.06 11/08/85 BCOM, DIPLOMA IN WEB DESIGN & DEVELOPMENT PUNE WEB DEVELOPER PUNE/20000/-PM
MB33582 24/11/13 5.07 31/10/87 BSC(AGRI), PGDAEM HYDERABAD PUNE AGRI ASST. OSMANABAD/25000/-PM
MB33581 24/11/13 5.06 20/02/81 BE(MECH) OSMANABAD SERVICE PUNE/50000/-PM
MB33580 24/11/13 5.11 30/09/81 BE(INSTRUMATION) SATARA SERVICE PUNE/50000/-PM
MB33579 24/11/13 5.11 17/02/86 BE(COMP) A.NAGAR SERVICE IN S/W COMPANY PUNE/55000/- PM
MB33577 24/11/13 5.05 12/12/84 MSC(AGRI)HORTICULTURE SATARA GOVT.SERVICE BAITUL(M.P.)/27000/-PM
MB33576 24/11/13 5.07 21/09/84 BCS, MCA PUNE S/W ENGINEER PUNE/90000/-PM
MB33575 24/11/13 5.04 11/01/85 B.PHARMACY, MBA THANE SERVICE MUMBAI/35000/-PM
MB33574 24/11/13 5.07 21/03/86 BE(INSTRU) PUNE SERVICE MANAGER IN BHARUCH/9 LAC PA
MB33573 23/11/13 5.07 20/04/85 BE(E&TC), MBA(FIN) PUNE PRODUCT MANAGER/12 LAC PA
MB33572 23/11/13 5.08 28/05/85 BCOM, MCM PUNE SR.S/W QUALITY ASSURANCE PUNE/50000/-PM
MB33571 23/11/13 5.10 07/09/84 BE(COMP) AMRAVATI SERVICE PUNE/6.2 LAC PA
MB33570 23/11/13 5.10 15/10/84 BCOM, MBA(INT.TRADE) PUNE BUSINESS HOTEL(LODGING/BOARDING)+SERVICE/3 LAC PM
MB33569 23/11/13 5.07 24/03/86 BE(E&TC), PGDM(MKTG) PUNE TECHNICAL REPRESENTATIVE PUNE/34000/-PM
MB33568 23/11/13 5.06 29/09/85 BE(E&TC), CONVENT PUNE SR.S/W ENGINEER IN MNC PUNE (WORKED IN PARIS(FRANCE)/AUSTRALIA)/7.8 LAC PA
MB33567 23/11/13 5.07 21/03/82 MSC(COMP) KOLHAPUR S/W ENGINEER PUNE/12 LAC PA
MB33566 23/11/13 5.08 17/12/83 12TH, DOING DME SANGLI AGRI(GRAPES/FLOWERS/BANANA PRODUCTION)/--
MB33565 23/11/13 5.10 19/08/84 DIP. IN FIRE & SAFTY MGMT AKOLA FARMING+PEON IN BANK/20000/-PM
MB33564 23/11/13 5.06 29/07/84 BSC, MBA(IT), NDA, INA PASS PUNE SERVICE BANGALORE (NOW IN UK RETURN)/10.50 LAC PA
MB33563 23/11/13 5.08 31/10/84 BSC(AGRI) NAVI MUMBAI ASST.COMMANDANT/DSP IN CENTRAL POLICE FORCE/50000/-PM
MB33562 23/11/13 5.09 11/09/86 BSC(AGRI), APPEARING MPSC/UPSC EXAM SATARA CENTRAL GOVT SERVICE(CLASS II)/4.2 LAC PA
MB33561 23/11/13 5.09 10/04/87 BE(CIVIL) THANE BUSINESS/14 LAC PA
MB33560 23/11/13 5.08 14/04/89 BSC SATARA SERVICE PUNE/15000/-PM
MB33559 22/11/13 5.07 01/10/91 BCOM PUNE BUSINESS PUNE/4 LAC PA
MB33558 22/11/13 5.09 25/05/86 BE(E&TC) PUNE N/W Asst Mgnr in TATA COMM(VSNL) Pune/7 LAC PA
MB33557 22/11/13 5.05 15/11/83 MBA(FIN) MUMBAI ASST.MANAGER MUMBAI/40000/-PM
MB33556 22/11/13 5.06 11/01/83 B.TECH(CHEM) RAIGAD SERVICE IN PHARMA MNC/3.2 LAC PA
MB33555 22/11/13 5.11 11/02/80 MCS, S/W ENGINEER MUMBAI S/W CONSULTANT IN GOVT OF USA (WILL BE COMING TO INDIA FROM 16TH NOV.2013) /$1 LAC PA
MB33554 22/11/13 5.07 17/01/87 MCS PUNE Sr. S/W ENGINEER PUNE/51000/-PM
MB33553 22/11/13 5.07 06/10/87 DIP.CIVIL ENGG PUNE CONSTRUCTION BUSINESS/1 LAC PM
MB33552 22/11/13 5.08 26/01/86 BCOM PUNE OWN TRANSPORT OFFICE PUNE/1 LAC PM
MB33551 22/11/13 5.10 15/06/80 BSC, MCM PUNE IT COMPANY PUNE/10 LAC PA
MB33550 22/11/13 5.07 13/06/84 BE(COMP), MS(USA) PUNE SERVICE USA/$ 1.00 LAC PA
MB33549 22/11/13 5.11 18/12/86 BE(CHEM), MS(CHEM)USA PUNE SERVICE/--
MB33548 22/11/13 5.10 08/03/87 MBA MUMBAI SERVICE/--
MB33547 22/11/13 5.09 04/09/86 MASTERS(USA), BE(PROD) KOLHAPUR MANUFACTURING ENGINEER USA/--
MB33546 22/11/13 5.09 18/11/85 BSC(CHEM) PUNE SERVICE PUNE/30000/-PM
MB33545 21/11/13 5.04 03/03/87 BA, CERTIFICATION IN CCNA, VCP 5.0 SATARA SERVICE IN MUMBAI/3.5 LAC PA
MB33544 21/11/13 5.05 10/03/83 BCOM, GDC&A PUNE SERVICE PUNE/20000/-PM
MB33543 21/11/13 5.10 21/01/84 DOING CPA AUSTRALIA AURANGABAD ACCOUNTANT AUSTRALIA/$35000 AUD PA
MB33541 21/11/13 5.08 14/09/83 BE(E&TC), MBA(MKTG) PUNE S/W ENGINEER+BUSINESS/50000/-PM
MB33540 21/11/13 5.05 31/08/85 BE(CHEM) PUNE SERVICE IN ONGC/55000/-PM
MB33539 21/11/13 5.06 25/12/81 MBBS, DGO OSMANABAD M.O.SHEEP IN HOSPITAL PUNE/--
MB33538 21/11/13 5.10 30/06/83 BE(E&TC), MBA(MKT) PUNE IT COMPANY PUNE/3 LAC PA
MB33537 21/11/13 5.08 27/01/87 M.TECH & PHD (IIT KHARAGPUR) PUNE ASST. PROF, NAVSARI AGRIL. UNIVERSITY (CLASS II GOVT. OF GUJARAT/6 LAC PA
MB33536 21/11/13 5.05 26/12/87 BE(E&TC) SOLAPUR SERVICE S/W ENGINEER PUNE/50000/-PM
MB33535 21/11/13 5.09 01/07/88 B.TECH LATUR GOVT ENGINEER/5.5 LAC PA
MB33534 21/11/13 5.07 05/07/84 BE(COMP), MS(USA) MUMBAI SERVICE USA/9000 USD PM
MB33533 21/11/13 5.05 28/08/86 MCA THANE SERVICE/5 LAC PA
MB33532 21/11/13 5.08 21/09/84 BE(MECH) PANVEL BUSINESS CIVIL CONSTRUCTION/3 LAC PM
MB33531 21/11/13 5.10 07/07/85 BE(ELECTRONICS) THANE SR.CONSULTANT/11.5 LAC PA
MB33530 21/11/13 5.06 24/06/85 LLB,MPM, MPSC(Appear) PUNE SERVICE PUNE/3 LAC PA+25000(RENT)PM
MB33529 21/11/13 5.09 20/11/85 MBBS, DCH, DNB(II YEAR) MUMBAI SOLAPUR WORKING AT MUMBAI/--
MB33528 20/11/13 5.08 31/05/85 BE(ELECTRONICS) THANE S/W ENGINEER IN TCS/12 LAC PA
MB33527 20/11/13 5.08 27/03/85 MCS PUNE SERVICE/8 LAC PA
MB33526 20/11/13 6.02 10/03/87 BAMS, PGDEMS NAVI MUMBAI MEDICAL PRACTICE/30000/-PM
MB33525 20/11/13 5.07 01/05/84 MBBS, MD(ANAESTH) SANGLI RESIDENT DOCTOR/5.88 LAC PA
MB33524 20/11/13 5.04 20/12/83 BE, M.TECH (IIT BOMBAY) MUMBAI SERVICE PUNE/8 LAC PA
MB33523 20/11/13 6.00 30/10/83 BE(MECH) THANE MANAGER IN MNC PUNE/18 LAC PA
MB33522 20/11/13 5.11 03/09/83 MBA(MKTG), BHMS MUMBAI BRAND MANAGER MUMBAI/5 LAC PA
MB33520 20/11/13 5.08 08/12/86 BE(E&TC) PUNE SERVICE IN PUNE/5.4 LAC PA
MB33519 20/11/13 5.07 11/11/85 B.TECH(IT) PUNE PROJECT LEAD IN IT COMPANY PUNE/7.7 LAC PA
MB33518 20/11/13 5.09 12/05/82 BE(ELECTRONICS) MUMBAI S/W ENGINEER MUMBAI /10 LAC PA
MB33516 20/11/13 5.07 02/11/82 MBA(IT), MSC(ELECTRONICS) BARODA SERVICE HYDERABAD/7.5 LAC PA+
MB33514 20/11/13 5.09 21/01/87 BDS THANE --/--
MB33513 20/11/13 5.11 19/01/88 SY BCOM PUNE SERVICE IN ARMY/--
MB33511 19/11/13 5.09 26/11/76 BCOM, GNIIT PUNE S/W TEST LEAD/--
MB33510 19/11/13 5.05 29/10/86 BCOM, DTL, GDC&A, DOING CS PUNE BANK SERVICE+LIC /25000/-PM
MB33509 19/11/13 5.06 27/02/84 MBBS, MD(MEDI)-III YEAR SANGLI DOING MD AT MUMBAI/34000/-PM
MB33507 19/11/13 5.08 27/04/82 BE(MECH), PREPARING FOR MS(MFG) GRE NEW PANVEL PRODUCTION MANAGER/8.5 LAC PA
MB33505 19/11/13 5.11 03/08/85 MBBS, DCH FELLOW NEONATOLOGY & DNB(PAED) 2ND YEAR SOLAPUR PG STUDY/--
MB33504 19/11/13 5.09 15/07/86 DIP.INDUSTRIAL ELECTRONICS, BCOM PUNE SR.EXECUTIVE SALE/35000/-PM
MB33503 19/11/13 5.03 22/10/84 MCOM, MBS, ICWA(INTER) PUNE SERVICE PUNE/35000/-PM
MB33502 19/11/13 5.08 31/07/86 M.TECH LATUR ASST PROFESSOR/6 LAC PA
MB33501 19/11/13 5.09 20/11/88 BAMS, MD(PANCHKARMA) KARAD OWN AYURVEDIC PRACTICE/--
MB33499 18/11/13 5.05 24/10/84 BE(CHEM) THANE DESIGN ENGINEER MNC MUMBAI/9 LAC PA
MB33498 18/11/13 5.05 30/06/84 BE(COMP) NAVI MUMBAI S/W ENGINEER/
MB33497 17/11/13 5.05 05/11/85 M-TECH (MECHANICAL), BE(MECH) NAVI MUMBAI PROFESSOR/45000/- PM
MB33496 17/11/13 5.10 03/04/87 BBA(FIN) PUNE SERVICE PUNE/3.2 LA PA
MB33495 17/11/13 6.00 23/08/85 MBA(MKT), BSC(MICRO) THANE SERVICE IN MNC MUMBAI/6.3 LAC PA
MB33494 17/11/13 5.08 24/01/86 BE(MARINE) MUMBAI MARINE ENGINEER/1.10 LAC PM
MB33493 17/11/13 5.08 29/06/82 BE(COMP) OSMANABAD S/W ENGINEER PUNE/50000/-PM
MB33492 17/11/13 6.01 08/01/88 BE(ELECTRONICS) PUNE SERVICE PUNE/25000/-PM
MB33491 17/11/13 5.09 02/07/85 D.PHARM PUNE CONSTRUCTION, HOTEL, EARTH MOVERS PUNE/3 LAC PM
MB33490 17/11/13 5.08 01/09/86 BSC(INDUSTRIAL CHEM) LATUR POLICE SUB INSPECTOR NASHIK/30000/-PM
MB33489 17/11/13 5.08 21/04/86 BE(ELECTRONICS), PGD(EMBEDDED SYSTEMS DESIGN) PUNE SERVICE PUNE/3 LAC PA
MB33487 17/11/13 5.10 09/08/88 PGDBM(MBA) PUNE TRADING FRANCHISE WORKSHOP/40000/-+PM
MB33486 17/11/13 5.06 31/05/84 BE PUNE S/W ENGINEER PUNE/80000/-PM
MB33485 17/11/13 5.09 22/01/82 BE(MECH) PUNE SERVICE ENGINEER/8.3 LAC PA
MB33484 17/11/13 5.05 27/10/83 BCOM, MBA(FINANCE) THANE ASST.MANAGER MUMBAI/50000/-PM
MB33483 16/11/13 5.04 12/09/80 BE(CIVIL) MUMBAI SR.STRUCTURAL DESIGN ENGG IN MNC MUMBAI/12 LAC PA
MB33481 16/11/13 5.11 19/01/86 B.TECH(MECH), MBA(MKTG) NANDURBAR MANAGER IN TATA MOTORS NAGPUR/12.5 LAC PA
MB33480 16/11/13 5.09 01/06/88 DME PUNE SERVICE/25000/-PM
MB33478 16/11/13 5.10 30/07/87 BE(CIVIL), PGPCM(MBA) SANGLI ASST.PROJECT MANAGER PUNE/7.5 LAC PA
MB33477 16/11/13 5.07 17/06/80 BCOM, BA, B.ED(PHY) PUNE GOVT.JOB + BUSINESS PUNE/16000+35000
MB33476 16/11/13 5.11 13/03/86 BCOM NAVI MUMBAI CEN.GOVT.JOB(CENTRAL RAILWAY)/2.64 LAC PA
MB33475 16/11/13 5.09 28/06/86 BCS, MCA AURANGABAD S/W ENGINEER IN MNC PUNE/35000/-PM
MB33474 16/11/13 6.00 26/03/85 BSC(MATHS), MBA(MKTG) MUMBAI SALES EXECUTIVE /8 LAC PA
MB33473 16/11/13 6.01 03/07/86 BE(COMP) KOLHAPUR SERVICE PUNE/9.5 LAC PA
MB33472 15/11/13 5.05 22/09/85 BE(MECH), PREPARING FOR UPSC/MPSC PUNE CEN.GOVT.JOB GOA/30000/-PM
MB33471 15/11/13 5.11 04/11/82 BBA, MBA(MKT), MBA(IBM) PANDHARPUR OWN BUSINESS (SHARES & COMMODITY TRADING) PANDHARPUR/50000/-PM
MB33470 15/11/13 5.09 21/10/83 LLB, LLM, DIP.CYBER LAW + BUSINESS LAW+CONSUMER LAW A.NAGAR SERVICE AS LEGAL OFFICER IN MNC+ LEGAL ADVISOR IN FATHERīS LAW FIRM PUNE/7.5 LAC+ PA
MB33469 15/11/13 5.08 18/10/85 BSC(BIO), MBA(MKT) PUNE MANAGER IN CENTRAL GOVT. OF INDIA SERVICE MUMBAI/42000-/PM
MB33468 15/11/13 5.11 04/11/79 BE(COMP) PUNE S/W ENGINEER PUNE /70000/- PM
MB33467 15/11/13 5.08 05/10/80 BCOM A.NAGAR AGRI(POMEGRANATE & ONION PRODUCTION)/50000/-PM
MB33466 15/11/13 5.07 29/09/88 BE(E&TC) PUNE SERVICE MNC PUNE/7.8 LAC PA
MB33465 15/11/13 5.10 13/09/87 BSC, MBA PUNE SERVICE IN BANK PUNE/2.8 LAC PA
MB33464 14/11/13 5.08 28/09/84 BE(TELECOM) SATARA SERVICE PUNE/7.6 LAC PA
MB33463 14/11/13 5.08 29/11/84 BAMS, EMS, ACLS, ITLS, HASMAT, DIP IN MEDICAL COSMETOLOGY SATARA DOCTOR/40000/-PM
MB33462 14/11/13 5.09 27/09/86 B.PHARM(CLINICAL RESEARCH) PUNE CLINICAL RESEARCH ANALYST IN MNC/30000/-PM
MB33460 14/11/13 6.00 10/06/85 MSC(CHEMISTRY), B.ED PARBHANI LECTURER/7 LAC PA
MB33458 14/11/13 5.11 18/03/85 BE(COMP) PUNE S/W ENGINEER PUNE (USA RETURN)/12.5 LAC PA
MB33457 14/11/13 5.07 15/12/85 BE(MECH) SOLAPUR DY.MANAGER CENTRAL GOVT UNDERTAKING ORGAZATION PUNE/9 LAC PA
MB33456 14/11/13 5.05 01/06/87 MBBS, DOING DCH KARAD DOING DCH/--
MB33454 14/11/13 5.04 18/12/86 BE(IT) PUNE SERVICE PUNE/50000/-PM
MB33453 14/11/13 5.06 15/05/85 BSC, LLM PUNE ASST.REGIONAL LEGAL MANAGER LIC HSG FINANCE/--
MB33452 14/11/13 5.07 19/09/84 MBBS, DNB(RADIOLOGY) SATARA DOCTOR PUNE/SATARA/--
MB33451 14/11/13 5.09 30/09/87 MCA PUNE SERVICE/--
MB33450 14/11/13 5.08 12/10/85 MCM PUNE SR.S/W ENGINEER PUNE/60000/-PM
MB33449 14/11/13 5.11 19/03/88 BE(MECH) PUNE ASST.MANAGER/--
MB33448 14/11/13 5.10 14/07/82 MA, M.PHIL, NET-SET(PASS), PHD(APPEAR) PUNE PROFESSOR IN PUNE/60000/-PM
MB33447 13/11/13 5.07 28/06/82 BA NAVI MUMBAI POLICE CONSTABLE/22000/-PM
MB33446 13/11/13 6.00 05/03/85 BE(MECH), MS(S/W SYSTEMS)BITS SATARA S/W PROFESSIONAL PUNE/12 LAC PA
MB33445 13/11/13 5.08 29/03/86 BE(CIVIL), ME(CONS.MGMT), PHD(APPEAR) KOLHAPUR ASST.PROFESSOR(CIVIL)/4.75 LAC PA
MB33444 13/11/13 5.06 02/10/81 BCOM, CONVENT NASHIK BUSINESS/7 LAC PA
MB33443 13/11/13 5.05 29/08/83 MPM NASHIK BUSINESS & LAND DEVELOPING/7 LAC PA
MB33442 13/11/13 5.08 16/04/83 BE(MECH) PUNE ASST.MANAGER RANJANGAON-PUNE/40000/-PM
MB33441 13/11/13 5.07 13/12/83 BCOM, PGDM, MPSC APPEARING PUNE BUSINESS PUNE/30000/-PM
MB33440 13/11/13 5.04 13/10/84 BE(PROD) PUNE SERVICE PUNE/42000/-PM
MB33439 13/11/13 5.10 07/08/85 MCM PUNE QA TESTING/2.5 LAC PA
MB33438 13/11/13 5.06 19/04/86 B.PHARM, MBA NAVI MUMBAI PHARMA MKTG MUMBAI/8 LAC PA
MB33437 13/11/13 5.05 24/09/87 BAMS PUNE OWN CLINIC PUNE/--
MB33434 13/11/13 5.08 12/11/81 BE(AUTOMOBILE) KOLHAPUR ENGINEER-WORKING IN USA FOR LAST 3 YEARS/14.5 LAC PA
MB33433 13/11/13 5.09 04/11/80 BE(MECH), C-DAC, PGDAC PUNE S/W ENGINEER/12.02 LAC PA
MB33432 12/11/13 5.05 15/10/82 MBBS, DOING MD(MEDICINE)IIYEAR MUMBAI DOCTOR(DOING MD IN MEDICINE II YEAR AT PUNE)/50000/-PM
MB33431 12/11/13 5.10 11/08/81 BSC, PGDHR, DOING LLB MUMBAI CLASS I OFFICER/5 LAC PA
MB33430 12/11/13 5.07 10/09/85 BE(MECH), MBA(OPER) OSMANABAD SERVICE IN PUNE/
MB33429 12/11/13 5.07 21/08/85 MBA(FIN & HR) PUNE SERVICE PUNE/6 LAC PA
MB33428 12/11/13 5.09 10/05/85 M.TECH(GENETIC ENGG), BE(BIOTECH) PUNE PRODUCT SPECIALIST/--
MB33427 12/11/13 5.07 21/02/85 MD(MEDI) NAGPUR DOCTOR/--
MB33426 12/11/13 6.00 21/10/82 BE(MECH) PUNE S/W ENGINEER PUNE/7.5 LAC PA
MB33425 12/11/13 5.08 26/06/81 DIPLOMA IN ELECTRICAL ENGG (CONVENT EDUCATED) RAIGAD SERVICE/12 LAC PA
MB33424 12/11/13 5.11 23/03/84 MASTERS IN MGMT PUNE MNC SINGAPORE/USD 40000 PA
MB33423 12/11/13 5.06 20/06/86 BAMS, MS(GEN.SURG) A.NAGAR SERVICE PUNE (PLANNING FOR MULTISPECIALITY HOSPITAL)/50000/-PM
MB33422 12/11/13 5.08 28/11/83 DIPLOMA IN AUTOMOBILE ENGINEERING, Admission process is in progress for IIIE,Part-time B-Tech course partial, convent educated PUNE SERVICE IN PUNE/5.7 LAC PA
MB33421 12/11/13 5.04 09/04/86 MSC(TECH)INFO.SYSTEMS, BITS PILANI BIDAR Software Engineer (ORACLE India Pvt Ltd) Bangalore, SR.BUSINESS ANALYST - NEW DELHI (USA RETURNED-2011)/12 LAC PA
MB33420 12/11/13 5.08 20/06/86 BE(MECH) SATARA SERVICE/13 LAC PA
MB33419 12/11/13 5.08 15/02/84 BE(TELECOM), MBA(MKT SYS) MUMBAI IT CONSULTANT PUNE/12.40 LAC CTC
MB33418 12/11/13 5.09 22/02/82 MBBS, MS(II)YEAR NASHIK DOING MASTER IN SURGERY(II)YEAR/10000/-PM
MB33417 12/11/13 5.05 01/01/80 B.ARCH PUNE SERVICE L&T MUMBAI /--
MB33416 12/11/13 5.07 06/01/88 BSC(CHEM) PUNE SERVICE IN PUNE/20000/-PM
MB33415 12/11/13 5.09 20/07/84 MA PUNE POLICE PUNE/25000/-PM
MB33414 11/11/13 5.11 30/04/85 MBA(HR/MKTG) PUNE REGIONAL MANAGER HR/10 LAC PA +
MB33413 11/11/13 5.08 28/10/86 B.TECH IN MECH ENGINEER, MBA(FINAL YEAR) PUNE SR.DESIGN ENGINEER PUNE/70000/-PM
MB33412 11/11/13 5.10 22/12/84 BE(COMP) NAVI MUMBAI SERVICE/8 LAC PA
MB33411 11/11/13 5.11 29/10/85 BE(MECH), MBA(UK) SANGLI WHOLE TIME DIRECTOR ATHANI SUGARS/1 LAC PM
MB33410 10/11/13 5.05 22/11/81 BCOM PUNE SR.CLERK+ACCOUNT MANAGER/23000/-PM
MB33409 10/11/13 5.07 17/01/85 MBA(IM) PARBHANI BUSINESS/60000/- PM
MB33408 10/11/13 5.08 10/10/85 BE(E&TC), MBA(FIN) PUNE DY.MANAGER PUNE/50000/-PM
MB33407 10/11/13 5.05 04/01/83 DME, BCOM, PG PUNE DESIGN ENGINEER PUNE/5.4 LAC PA
MB33406 10/11/13 5.08 28/07/83 BE(CIVIL), MBA(ADV.CONSTRUCTION MGMT), LLB-II PUNE DY.MGR PROJECTS PUNE/75000/-PM
MB33405 10/11/13 5.09 14/08/85 BE(E&TC) PUNE BUSINESS/10 LAC PA
MB33404 10/11/13 5.03 13/08/85 MSC(ORG), PHD(ORG.CHEM)APPEARING PUNE SERVICE TAIWAN/68000/-PM
MB33403 10/11/13 5.11 10/09/88 BE(COMP),CONVENT, PREPARING FOR UPSC/MPSC PUNE SERVICE IN TCS PUNE/55000/-PM
MB33402 10/11/13 5.07 05/11/87 BE(PROD), DIPLOMA (PROD) PUNE SERVICE AS PLANNING EXECUTIVE IN ALFA LAVAL PUNE/5.5 LAC PA
MB33401 10/11/13 5.05 04/05/84 BCOM, MBA(FIN) PUNE ACCOUNTING PUNE/35000/-PM
MB33400 10/11/13 5.07 17/03/83 BE(MECH) NAVI MUMBAI ASST MANAGER, L&T MUMBAI/8 LAC PA
MB33399 10/11/13 5.11 10/04/87 BE(MECH) NASHIK SERVICE IN PUNE/6.06 LAC PA
MB33398 10/11/13 5.06 01/11/84 BE(IT), MS(S/W ENGG) PUNE BUSINESS ANALYST IN USA (COMING TO INDIA IN MAY.2014)/10000 USD PM
MB33396 10/11/13 5.07 18/05/85 DIP.IN CIVIL ENGG SATARA CONTRACTOR(PMC) PUNE/60000/-PM
MB33395 09/11/13 5.04 27/09/85 BE(COMP) PUNE SERVICE PUNE/15 LAC PA
MB33394 09/11/13 5.11 10/07/85 BSC(ANIMATION), BCOM PUNE OWN ANIMATION & VFX STUDIO PUNE/50000/-PM
MB33393 09/11/13 5.09 05/06/85 MBBS, MD(MEDICINE) A.NAGAR MEDICAL OFFICER MUMBAI/45000/-PM
MB33392 09/11/13 5.07 03/11/84 MS(COMP)AUSTRALIA, BE(TELECOM) BELGAUM S/W CONSULTANT AUSTRALIA/AUD $ 85000 PA
MB33391 09/11/13 5.08 06/12/84 BSC(ELE), MS(S/W) PUNE SYSTEM ANALYST PUNE (TRAVELING UK IN JAN-2014)/10 LAC PA
MB33390 09/11/13 6.00 22/10/85 BE(E&TC) PUNE SERVICE PUNE/50000/-PM
MB33389 09/11/13 5.07 19/09/84 BCS, S/W TESTING COURSE PUNE SR.QA ENGG/5 LAC PA+
MB33388 09/11/13 5.09 14/06/84 BE(MECH) PUNE SERVICE IN PUNE/12 LAC PA
MB33387 09/11/13 5.08 06/05/86 MSC(BIOTECH) PUNE RESEARCH ASST.GOVT.JOB PUNE/
MB33386 09/11/13 5.07 04/07/80 BE(MECH), COEP PUNE SERVICE PUNE/7 LAC PA
MB33385 09/11/13 5.10 22/02/88 BE, MBA, PGPM PUNE ASST.MANAGER(BANK) MUMBAI/6 LAC PA
MB33384 08/11/13 5.07 13/05/87 BCA, SAP PUNE SAP TECHNICAL-FUNCTIONAL CONSULTANT/ --
MB33383 08/11/13 5.05 25/01/79 MSC(PHY), S/W PROFESSONAL PUNE SERVICE IN MNC(IT) IN PUNE/13 LAC PA
MB33382 08/11/13 5.07 30/10/84 B.ARCH PUNE OWN PRACTICE PUNE/6 LAC PA
MB33381 08/11/13 5.07 07/10/85 BE(E&TC) NEW PANVEL S/W ENGINEER NAVI MUMBAI/10.30 LAC PA+
MB33379 08/11/13 5.09 25/08/85 B.PHARM, MSC(PHARMA)UK PUNE BUSINESS PUNE/--
MB33378 08/11/13 5.05 19/05/84 F.Y.BCOM PUNE OWN GALA PUNE/--
MB33377 08/11/13 5.05 25/03/80 PHD(FINE ART & ANIMATION)TAIWAN PUNE BUSINESS USA/TAIWAN/16 LAC PA
MB33376 08/11/13 5.11 25/07/85 BE(MECH), MBA PUNE SR.MANAGER PUNE/60000/-PM
MB33375 08/11/13 5.11 11/04/86 BA, B.ED PUNE BUSINESS /40000/-PM
MB33374 08/11/13 5.07 13/12/84 MCOM, PGDMLM PUNE SERVICE PUNE/25000/-PM
MB33373 08/11/13 5.10 26/03/88 BCOM BARODA OWN BUSINESS- CONSTRUCTION & GYM BARODA/70000/-PM
MB33372 08/11/13 5.09 04/10/86 BE(CHEM) THANE PROCESS ENGINEER IN MUMBAI/5.4 LAC PA
MB33371 08/11/13 5.07 25/04/87 BE(COMP), MBA(IT) MUMBAI S/W ENGINEER MUMBAI/6.9 LAC PA
MB33370 08/11/13 5.10 21/10/88 M.PHARM LATUR CORPORATE JOB/--
MB33369 08/11/13 5.05 15/06/83 LLM(IPR) AHMEDABAD CLASS-1(CIVIL JUDGE)/--
MB33368 07/11/13 5.07 07/03/84 BDS, MDS (I YEAR) PEDIATRIC DENTISTRY) THANE DOCTOR/--
MB33366 07/11/13 5.06 06/07/87 BE(IT), ME(CSE) SOLAPUR ASST.PROFESSOR/3.8 LAC PA
MB33365 07/11/13 5.05 24/04/84 BSC, MCA PUNE ASST.PROFESSOR PUNE/40000/-PM
MB33364 07/11/13 5.11 15/06/82 BE(CIVIL), ORACLE CERTIFIED ASSOCIATE NANDED S/W ENGINEER+OWN BUSINESS/--
MB33363 07/11/13 5.11 13/10/85 BE(CIVIL), ME(ENV.ENGG & WRE)-YEAR PUNE GOVT. OFFICER CLASS-II, PUNE/30000/-PM
MB33361 07/11/13 5.08 21/07/83 BE(IT) PUNE S/W PROFESSIONAL PUNE/8.10 LAC PA
MB33359 07/11/13 5.06 18/05/84 MSC(LIFE SCIENCE) THANE SERVICE-R&D SCIENTIST/3 LAC PA
MB33358 07/11/13 5.06 25/01/87 BE(COMP) THANE SERVICE/8.5 LAC PA
MB33357 07/11/13 5.08 14/02/87 BE(IT) PUNE TECHNICAL CONSULTANT BANGALORE/7.7 LAC PA
MB33356 06/11/13 5.10 20/05/87 BE(IT) PUNE SERVICE PUNE/42000/-PM
MB33355 06/11/13 5.08 08/05/88 BE(ELECTRICAL) PUNE MNC BANGALORE/6.25 LAC PA
MB33354 06/11/13 6.00 20/06/83 BE, MBA AKOLA MKTG EXECUTIVE NAGPUR/7 LAC PA+
MB33353 06/11/13 5.10 11/03/83 DIP.IN IT, BCA, PURSUING MBA FROM ICFAI GOA PROJECT LEAD PUNE/7 LAC PA
 
    page 6 of 11
 
Home | Rules | Search | Enroll | Grooms | Brides | Divorcee | Response | Magazine | Success Stories | Contact Us